Location: Les Salelles
(44.4192°N, 4.1044°E)
Time: 20:01:36
(UTC+00:00)

NOSS 3-1 (C) - Pass Details

Date: 20 January 2021
Orbit: 723 x 1485 km, 63.3° (Epoch: 03 March)

Event Time Altitude Azimuth Distance (km) Brightness Sun altitude
Rises 19:23:14 0° 322° (NW) 3,938 7.2 -29.4°
Reaches altitude 10° 19:25:44 10° 322° (NW) 3,077 6.5 -29.9°
Maximum altitude 19:33:20 89° 48° (NE) 1,322 4.0 -31.2°
Enters shadow 19:34:45 66° 142° (SE) 1,445 4.1 -31.5°
